EW5393 Weather Reports


Display with metric or nautical units.
time (UTC)temp
F
wind
direction
speed
MPH
gust
MPH
rain 1hr
in
rain 24hr
in
rain mn
in
humidity
%
barometer
mb
20260831214304 70 53 1.0 1.0 0.00 0.00 0.00 40 1014.5
20260831213804 70 53 1.0 1.0 0.00 0.00 0.00 39 1014.5
20260831213304 70 53 1.0 1.0 0.00 0.00 0.00 38 1014.6
20260831212804 71 53 1.0 1.0 0.00 0.00 0.00 37 1014.7
20260831211803 71 53 1.0 1.0 0.00 0.00 0.00 39 1014.8
20260831211304 70 53 1.0 1.0 0.00 0.00 0.00 38 1014.5
20260831210304 71 53 1.0 1.0 0.00 0.00 0.00 39 1014.8
20260831205804 71 53 1.0 1.0 0.00 0.00 0.00 37 1014.7
20260831205306 71 53 1.0 1.0 0.00 0.00 0.00 38 1014.8
20260831204803 71 53 1.0 1.0 0.00 0.00 0.00 36 1014.6
20260831204304 71 53 1.0 1.0 0.00 0.00 0.00 39 1014.8
20260831203803 71 53 1.0 1.0 0.00 0.00 0.00 38 1015.0
20260831203304 71 53 1.0 1.0 0.00 0.00 0.00 39 1015.1
20260831202804 71 53 1.0 1.0 0.00 0.00 0.00 38 1015.0
20260831202306 71 53 1.0 1.0 0.00 0.00 0.00 39 1015.0
20260831201804 71 53 1.0 1.0 0.00 0.00 0.00 37 1015.0
20260831201304 71 53 1.0 1.0 0.00 0.00 0.00 38 1015.3
20260831200804 71 53 1.0 1.0 0.00 0.00 0.00 38 1015.3
20260831200304 71 53 1.0 1.0 0.00 0.00 0.00 38 1015.2
20260831195803 71 53 1.0 1.0 0.00 0.00 0.00 36 1015.3
20260831194803 72 53 1.0 1.0 0.00 0.00 0.00 36 1015.4
20260831194304 72 53 1.0 1.0 0.00 0.00 0.00 38 1015.4
20260831193804 72 53 1.0 1.0 0.00 0.00 0.00 36 1015.3
20260831193304 73 53 1.0 1.0 0.00 0.00 0.00 37 1015.3
20260831192803 72 53 1.0 1.0 0.00 0.00 0.00 38 1015.4
20260831192305 73 53 1.0 1.0 0.00 0.00 0.00 37 1015.5
20260831190803 73 53 1.0 1.0 0.00 0.00 0.00 35 1015.9
20260831190304 72 53 1.0 1.0 0.00 0.00 0.00 37 1015.7
20260831185804 72 53 1.0 1.0 0.00 0.00 0.00 37 1016.0
20260831185306 72 53 1.0 1.0 0.00 0.00 0.00 37 1015.9
20260831184804 72 53 1.0 1.0 0.00 0.00 0.00 38 1015.9
20260831184303 72 53 1.0 1.0 0.00 0.00 0.00 37 1015.8
20260831183804 72 53 1.0 1.0 0.00 0.00 0.00 38 1016.1
20260831183304 72 53 1.0 1.0 0.00 0.00 0.00 38 1016.0
20260831182803 72 53 1.0 1.0 0.00 0.00 0.00 38 1016.1
20260831182305 73 53 1.0 1.0 0.00 0.00 0.00 39 1016.2
20260831181804 72 53 1.0 1.0 0.00 0.00 0.00 38 1016.0
20260831180803 72 53 1.0 1.0 0.00 0.00 0.00 38 1016.3
20260831175804 72 53 1.0 1.0 0.00 0.00 0.00 38 1016.4
20260831175306 73 53 1.0 1.0 0.00 0.00 0.00 40 1016.3
20260831174803 72 53 1.0 1.0 0.00 0.00 0.00 40 1016.3
20260831174304 72 53 1.0 1.0 0.00 0.00 0.00 41 1016.4
20260831173804 72 53 1.0 1.0 0.00 0.00 0.00 41 1016.3
20260831173304 72 53 1.0 1.0 0.00 0.00 0.00 41 1016.4
20260831172804 72 53 1.0 1.0 0.00 0.00 0.00 43 1016.3
20260831172306 72 53 1.0 1.0 0.00 0.00 0.00 42 1016.4
20260831171803 72 53 1.0 1.0 0.00 0.00 0.00 42 1016.2
20260831171304 72 53 1.0 1.0 0.00 0.00 0.00 41 1016.4
20260831170803 72 53 1.0 1.0 0.00 0.00 0.00 43 1016.3
20260831170303 72 53 1.0 1.0 0.00 0.00 0.00 44 1016.4
20260831165804 71 53 1.0 1.0 0.00 0.00 0.00 44 1016.4
20260831165305 71 53 1.0 1.0 0.00 0.00 0.00 43 1016.6
20260831164804 71 53 1.0 1.0 0.00 0.00 0.00 44 1016.5
20260831164304 71 53 1.0 1.0 0.00 0.00 0.00 44 1016.6
20260831163803 71 53 1.0 1.0 0.00 0.00 0.00 44 1016.5
20260831163304 71 53 1.0 1.0 0.00 0.00 0.00 44 1016.4
20260831162306 70 53 1.0 1.0 0.00 0.00 0.00 45 1016.5
20260831161803 70 53 1.0 1.0 0.00 0.00 0.00 46 1016.6
20260831161304 69 53 1.0 1.0 0.00 0.00 0.00 45 1016.3
20260831160803 70 53 1.0 1.0 0.00 0.00 0.00 45 1016.6
20260831160304 70 53 1.0 1.0 0.00 0.00 0.00 45 1016.7
20260831155804 69 53 1.0 1.0 0.00 0.00 0.00 46 1016.6
20260831155306 69 53 1.0 1.0 0.00 0.00 0.00 47 1016.6
20260831154804 69 53 1.0 1.0 0.00 0.00 0.00 47 1016.5
20260831154304 68 53 1.0 1.0 0.00 0.00 0.00 50 1016.6
20260831153803 68 53 1.0 1.0 0.00 0.00 0.00 51 1016.7
20260831153303 67 53 1.0 1.0 0.00 0.00 0.00 50 1016.6
20260831152804 67 53 1.0 1.0 0.00 0.00 0.00 53 1016.6
20260831152306 66 53 1.0 1.0 0.00 0.00 0.00 52 1016.7
20260831151804 66 53 1.0 1.0 0.00 0.00 0.00 54 1016.7
20260831151304 65 53 1.0 1.0 0.00 0.00 0.00 54 1016.5
20260831150804 64 53 1.0 1.0 0.00 0.00 0.00 58 1016.5
20260831150304 63 53 1.0 1.0 0.00 0.00 0.00 60 1016.5
20260831145804 62 53 1.0 1.0 0.00 0.00 0.00 61 1016.4
20260831145306 61 53 1.0 1.0 0.00 0.00 0.00 62 1016.6
20260831144804 59 53 1.0 1.0 0.00 0.00 0.00 63 1016.4
20260831144304 58 53 1.0 1.0 0.00 0.00 0.00 64 1016.6
20260831143804 57 53 1.0 1.0 0.00 0.00 0.00 65 1016.5
20260831143305 57 53 1.0 1.0 0.00 0.00 0.00 66 1016.4
20260831142804 56 53 1.0 1.0 0.00 0.00 0.00 66 1016.4
20260831141804 55 53 1.0 1.0 0.00 0.00 0.00 66 1016.5
20260831141304 55 53 1.0 1.0 0.00 0.00 0.00 66 1016.3
20260831140803 55 53 1.0 1.0 0.00 0.00 0.00 67 1016.4
20260831140304 54 53 1.0 1.0 0.00 0.00 0.00 67 1016.4
20260831135804 54 53 1.0 1.0 0.00 0.00 0.00 69 1016.3
20260831135306 54 53 1.0 1.0 0.00 0.00 0.00 69 1016.1
20260831134804 54 53 1.0 1.0 0.00 0.00 0.00 68 1016.2
20260831134304 53 53 1.0 1.0 0.00 0.00 0.00 68 1016.2
20260831133804 53 53 1.0 1.0 0.00 0.00 0.00 69 1016.1
20260831133304 53 53 1.0 1.0 0.00 0.00 0.00 68 1016.1
20260831132804 53 53 1.0 1.0 0.00 0.00 0.00 69 1016.1
20260831132306 53 53 1.0 1.0 0.00 0.00 0.00 69 1016.0
20260831131804 53 53 1.0 1.0 0.00 0.00 0.00 69 1016.0
20260831131304 53 53 1.0 1.0 0.00 0.00 0.00 69 1015.9
20260831130803 53 53 1.0 1.0 0.00 0.00 0.00 69 1016.0
20260831125804 53 53 1.0 1.0 0.00 0.00 0.00 69 1015.8
20260831125306 53 53 1.0 1.0 0.00 0.00 0.00 70 1015.7
20260831124804 53 53 1.0 1.0 0.00 0.00 0.00 70 1015.5
20260831124303 53 53 1.0 1.0 0.00 0.00 0.00 70 1015.6
20260831123804 53 53 1.0 1.0 0.00 0.00 0.00 71 1015.5
20260831123304 53 53 1.0 1.0 0.00 0.00 0.00 70 1015.8
20260831122804 53 53 1.0 1.0 0.00 0.00 0.00 71 1015.6
20260831122305 53 53 1.0 1.0 0.00 0.00 0.00 71 1015.6
20260831121804 54 53 1.0 1.0 0.00 0.00 0.00 71 1015.3
20260831121304 54 53 1.0 1.0 0.00 0.00 0.00 71 1015.5
20260831120804 54 53 1.0 1.0 0.00 0.00 0.00 72 1015.4
20260831120303 54 53 1.0 1.0 0.00 0.00 0.00 72 1015.4
20260831115804 54 53 1.0 1.0 0.00 0.00 0.00 72 1015.3
20260831115306 54 53 1.0 1.0 0.00 0.00 0.00 72 1015.3
20260831114804 54 53 1.0 1.0 0.00 0.00 0.00 72 1015.2
20260831114304 54 53 1.0 1.0 0.00 0.00 0.00 72 1015.1
20260831113804 54 53 1.0 1.0 0.00 0.00 0.00 72 1014.9
20260831113303 54 53 1.0 1.0 0.00 0.00 0.00 72 1014.9
20260831112804 54 53 1.0 1.0 0.00 0.00 0.00 73 1015.0
20260831112307 54 53 1.0 1.0 0.00 0.00 0.00 72 1014.9
20260831111804 54 53 1.0 1.0 0.00 0.00 0.00 73 1015.0
20260831111303 54 53 1.0 1.0 0.00 0.00 0.00 73 1014.9
20260831110803 54 53 1.0 1.0 0.00 0.00 0.00 73 1014.8
20260831105803 54 53 1.0 1.0 0.00 0.00 0.00 73 1014.9
20260831105306 54 53 1.0 1.0 0.00 0.00 0.00 73 1014.7
20260831104804 54 53 1.0 1.0 0.00 0.00 0.00 73 1014.7
20260831104304 54 53 1.0 1.0 0.00 0.00 0.00 74 1014.6
20260831103804 54 53 1.0 1.0 0.00 0.00 0.00 74 1014.6
20260831103304 54 53 1.0 1.0 0.00 0.00 0.00 74 1014.9
20260831102804 54 53 1.0 1.0 0.00 0.00 0.00 74 1014.8
20260831102306 54 53 1.0 1.0 0.00 0.00 0.00 74 1014.5
20260831101803 54 53 1.0 1.0 0.00 0.00 0.00 74 1014.3
20260831101304 54 53 1.0 1.0 0.00 0.00 0.00 74 1014.5
20260831100803 54 53 1.0 1.0 0.00 0.00 0.00 74 1014.7
20260831100304 54 53 1.0 1.0 0.00 0.00 0.00 74 1014.4
20260831095804 54 53 1.0 1.0 0.00 0.00 0.00 74 1014.6
20260831095306 55 53 1.0 1.0 0.00 0.00 0.00 74 1014.5
20260831094804 55 53 1.0 1.0 0.00 0.00 0.00 74 1014.6
20260831094304 55 53 1.0 1.0 0.00 0.00 0.00 74 1014.3
20260831093803 55 53 1.0 1.0 0.00 0.00 0.00 74 1014.6
20260831093304 55 53 1.0 1.0 0.00 0.00 0.00 74 1014.5
20260831092306 55 53 1.0 1.0 0.00 0.00 0.00 74 1014.6
20260831091804 55 53 1.0 1.0 0.00 0.00 0.00 75 1014.5
20260831091303 55 53 1.0 1.0 0.00 0.00 0.00 74 1014.5
20260831090303 55 53 1.0 1.0 0.00 0.00 0.00 74 1014.5
20260831085803 55 53 1.0 1.0 0.00 0.00 0.00 75 1014.3
20260831085306 55 53 1.0 1.0 0.00 0.00 0.00 75 1014.2
20260831084804 55 53 1.0 1.0 0.00 0.00 0.00 75 1014.3
20260831084304 55 53 1.0 1.0 0.00 0.00 0.00 75 1014.1
20260831083804 56 53 1.0 1.0 0.00 0.00 0.00 75 1014.2
20260831083303 56 53 1.0 1.0 0.00 0.00 0.00 75 1014.2
20260831082804 56 53 1.0 1.0 0.00 0.00 0.00 75 1014.2
20260831082306 56 53 1.0 1.0 0.00 0.00 0.00 74 1014.3
20260831081803 56 53 1.0 1.0 0.00 0.00 0.00 74 1014.1
20260831081304 57 53 1.0 1.0 0.00 0.00 0.00 73 1014.0
20260831080804 57 53 1.0 1.0 0.00 0.00 0.00 71 1014.0
20260831080304 57 53 1.0 1.0 0.00 0.00 0.00 68 1014.2
20260831075804 57 53 1.0 1.0 0.00 0.00 0.00 68 1014.1
20260831075306 57 53 1.0 1.0 0.00 0.00 0.00 68 1014.0
20260831074804 57 53 1.0 1.0 0.00 0.00 0.00 68 1013.9
20260831073803 57 53 1.0 1.0 0.00 0.00 0.00 68 1014.0
20260831073304 56 53 1.0 1.0 0.00 0.00 0.00 68 1013.9
20260831072306 56 53 1.0 1.0 0.00 0.00 0.00 69 1013.9
20260831071804 56 53 1.0 1.0 0.00 0.00 0.00 69 1013.9
20260831071305 56 53 1.0 1.0 0.00 0.00 0.00 69 1013.7
20260831070804 56 53 1.0 1.0 0.00 0.00 0.00 69 1013.8
20260831070304 56 53 1.0 1.0 0.00 0.00 0.00 69 1013.8
20260831065803 56 53 1.0 1.0 0.00 0.00 0.00 68 1013.5
20260831065306 56 53 1.0 1.0 0.00 0.00 0.00 68 1013.8
20260831064804 57 53 1.0 1.0 0.00 0.00 0.00 68 1013.4
20260831064304 57 53 1.0 1.0 0.00 0.00 0.00 68 1013.6
20260831063303 57 53 1.0 1.0 0.00 0.00 0.00 67 1013.6
20260831062804 57 53 1.0 1.0 0.00 0.00 0.00 67 1013.6
20260831062305 57 53 1.0 1.0 0.00 0.00 0.00 66 1013.6
20260831061304 57 53 1.0 1.0 0.00 0.00 0.00 66 1013.7
20260831060804 57 53 1.0 1.0 0.00 0.00 0.00 66 1013.6
20260831060304 57 53 1.0 1.0 0.00 0.00 0.00 66 1013.6
20260831055804 57 53 1.0 1.0 0.00 0.00 0.00 66 1013.4
20260831055306 57 53 1.0 1.0 0.00 0.00 0.00 66 1013.7
20260831054804 57 53 1.0 1.0 0.00 0.00 0.00 67 1013.4
20260831054304 57 53 1.0 1.0 0.00 0.00 0.00 67 1013.6
20260831053804 57 53 1.0 1.0 0.00 0.00 0.00 67 1013.6
20260831053304 57 53 1.0 1.0 0.00 0.00 0.00 67 1013.5
20260831052804 57 53 1.0 1.0 0.00 0.00 0.00 67 1013.7
20260831052306 57 53 1.0 1.0 0.00 0.00 0.00 66 1013.7
20260831051303 57 53 1.0 1.0 0.00 0.00 0.00 66 1013.6
20260831050804 57 53 1.0 1.0 0.00 0.00 0.00 66 1013.7
20260831050304 57 53 1.0 1.0 0.00 0.00 0.00 65 1013.6
20260831045804 57 53 1.0 1.0 0.00 0.00 0.00 65 1013.4
20260831045306 57 53 1.0 1.0 0.00 0.00 0.00 64 1013.5
20260831044804 57 53 1.0 1.0 0.00 0.00 0.00 63 1013.7
20260831044304 57 53 1.0 1.0 0.00 0.00 0.00 63 1013.6
20260831043804 57 53 1.0 1.0 0.00 0.00 0.00 63 1013.9
20260831043304 57 53 1.0 1.0 0.00 0.00 0.00 64 1013.7
20260831042306 56 53 1.0 1.0 0.00 0.00 0.00 64 1013.7
20260831041804 56 53 1.0 1.0 0.00 0.00 0.00 64 1013.6
20260831041304 57 53 1.0 1.0 0.00 0.00 0.00 64 1013.7
20260831040804 57 53 1.0 1.0 0.00 0.00 0.00 64 1013.8
20260831040304 57 53 1.0 1.0 0.00 0.00 0.00 63 1013.5
20260831035804 57 53 1.0 1.0 0.00 0.00 0.00 63 1013.7
20260831034804 57 53 1.0 1.0 0.00 0.00 0.00 62 1013.4
20260831034304 57 53 1.0 1.0 0.00 0.00 0.00 62 1013.4
20260831033804 57 53 1.0 1.0 0.00 0.00 0.00 61 1013.3
20260831033304 57 53 1.0 1.0 0.00 0.00 0.00 61 1013.1
20260831032804 58 53 1.0 1.0 0.00 0.00 0.00 61 1013.2
20260831032306 58 53 1.0 1.0 0.00 0.00 0.00 61 1013.2
20260831031804 58 53 1.0 1.0 0.00 0.00 0.00 61 1013.0
20260831031304 58 53 1.0 1.0 0.00 0.00 0.00 62 1012.9
20260831030804 58 53 1.0 1.0 0.00 0.00 0.00 64 1013.0
20260831030304 59 53 1.0 1.0 0.00 0.00 0.00 65 1012.6
20260831025804 59 53 1.0 1.0 0.00 0.00 0.00 68 1012.9
20260831025306 59 53 1.0 1.0 0.00 0.00 0.00 68 1012.9
20260831024804 59 53 1.0 1.0 0.00 0.00 0.00 68 1012.8
20260831024303 59 53 1.0 1.0 0.00 0.00 0.00 69 1012.9
20260831023804 59 53 1.0 1.0 0.00 0.00 0.00 69 1012.8
20260831023303 59 53 1.0 1.0 0.00 0.00 0.00 69 1012.7
20260831022306 60 53 1.0 1.0 0.00 0.00 0.00 69 1012.7
20260831021804 60 53 1.0 1.0 0.00 0.00 0.00 70 1012.7
20260831021304 60 53 1.0 1.0 0.00 0.00 0.00 69 1012.5
20260831020804 60 53 1.0 1.0 0.00 0.00 0.00 68 1012.4
20260831015803 61 53 1.0 1.0 0.00 0.00 0.00 66 1012.6
20260831015306 61 53 1.0 1.0 0.00 0.00 0.00 64 1012.4
20260831014803 61 53 1.0 1.0 0.00 0.00 0.00 64 1012.3
20260831014304 61 53 1.0 1.0 0.00 0.00 0.00 63 1012.5
20260831013804 61 53 1.0 1.0 0.00 0.00 0.00 63 1012.1
20260831013304 62 53 1.0 1.0 0.00 0.00 0.00 63 1012.3
20260831012804 62 53 1.0 1.0 0.00 0.00 0.00 64 1012.0
20260831012306 62 53 1.0 1.0 0.00 0.00 0.00 65 1011.9
20260831011303 62 53 1.0 1.0 0.00 0.00 0.00 64 1012.1
20260831010804 62 53 1.0 1.0 0.00 0.00 0.00 64 1012.1
20260831010304 62 53 1.0 1.0 0.00 0.00 0.00 63 1011.9
20260831005804 62 53 1.0 1.0 0.00 0.00 0.00 63 1011.8
20260831004804 63 53 1.0 1.0 0.00 0.00 0.00 63 1011.8
20260831004304 63 53 1.0 1.0 0.00 0.00 0.00 62 1011.7
20260831003804 63 53 1.0 1.0 0.00 0.00 0.00 61 1011.8
20260831003304 63 53 1.0 1.0 0.00 0.00 0.00 60 1011.5
20260831002804 63 53 1.0 1.0 0.00 0.00 0.00 60 1011.6
20260831002306 64 53 1.0 1.0 0.00 0.00 0.00 58 1011.7
20260831001804 64 53 1.0 1.0 0.00 0.00 0.00 57 1011.6
20260831001304 64 53 1.0 1.0 0.00 0.00 0.00 55 1011.7
20260831000804 65 53 1.0 1.0 0.00 0.00 0.00 55 1011.5
20260831000304 65 53 1.0 1.0 0.00 0.00 0.00 54 1011.4
20260830235803 64 53 1.0 1.0 0.00 0.00 0.00 54 1011.3
20260830235305 65 53 1.0 1.0 0.00 0.00 0.00 54 1011.3
20260830234804 65 53 1.0 1.0 0.00 0.00 0.00 53 1011.2
20260830234303 64 53 1.0 1.0 0.00 0.00 0.00 55 1011.3
20260830233304 64 53 1.0 1.0 0.00 0.00 0.00 54 1011.1
20260830232804 64 53 1.0 1.0 0.00 0.00 0.00 54 1011.0
20260830232306 65 53 1.0 1.0 0.00 0.00 0.00 54 1011.1
20260830231803 64 53 1.0 1.0 0.00 0.00 0.00 54 1010.8
20260830231304 64 53 1.0 1.0 0.00 0.00 0.00 55 1010.9
20260830230804 64 53 1.0 1.0 0.00 0.00 0.00 54 1010.8
20260830230303 64 53 1.0 1.0 0.00 0.00 0.00 55 1010.9
20260830225804 64 53 1.0 1.0 0.00 0.00 0.00 56 1010.8
20260830225305 64 53 1.0 1.0 0.00 0.00 0.00 56 1010.9
20260830224804 64 53 1.0 1.0 0.00 0.00 0.00 56 1010.8
20260830224304 64 53 1.0 1.0 0.00 0.00 0.00 56 1010.6
20260830223804 64 53 1.0 1.0 0.00 0.00 0.00 57 1010.9
20260830223304 64 53 1.0 1.0 0.00 0.00 0.00 56 1010.9
20260830222804 65 53 1.0 1.0 0.00 0.00 0.00 56 1010.9
20260830222306 65 53 1.0 1.0 0.00 0.00 0.00 56 1010.6
20260830221804 65 53 1.0 1.0 0.00 0.00 0.00 55 1010.7
20260830220803 65 53 1.0 1.0 0.00 0.00 0.00 56 1010.5
20260830220304 65 53 1.0 1.0 0.00 0.00 0.00 57 1010.5
20260830215305 64 53 1.0 1.0 0.00 0.00 0.00 57 1010.4
20260830214804 64 53 1.0 1.0 0.00 0.00 0.00 58 1010.6